Hulianwang W. Digui 12-05

operational
NORAD ID: 65999 Int'l Des: 2025-231 Owner: ZXW Country: CN Constellation: xingwang
NOTLE

About Hulianwang W. Digui 12-05

Description loading...

Live Position

Loading 3D Globe...

Upcoming Passes

Altitude History

Altitude vs Time

uPlot chart will show altitude changes over time

Two-Line Element Set

1 65999U 25231E 25289.53645907 -.00000123 00000-0 17441-4 0 9994
2 65999 50.0037 355.9219 0008094 276.3688 83.6295 14.06130833 79
Epoch: Oct 16, 2025 • Age: 7 hours

Current Status

Altitude 873.3 km
Velocity 7.42 km/s
Sub-Earth Point 12.32°N, 43.06°E
Launch Date Oct 16, 2025
Age N/A
Type other

Technical Details

Classification Payload
Mass 800.00 kg
Dry Mass 800.00 kg
Total Mass 800.00 kg
Length 3.00 m
Diameter 1.00 m
Span 10.00 m
Shape Box + 2 Pan
Manufacturer SECM
Bus Type Guowang S
Phase Status In Orbit
Owner/State ZXW/CN

Large Constellations

Loading constellations...